Wetterdaten: Donnerstag, 13.08.2015
Datum Zeit Temp. A. Mod.Schuppen Waschkche Feuchte A. Luftdruck Regen Wind Richtung Richtung Sonnenschein Helligkeit Solar
13.08.2015 00:00 21,2 C 18,9 C 23,3 C 75 % 1019,8 hPa 0,0 l/m 18,4 km/h (3 Bft) NO45 35 0 min 0 lux 0 W/m
13.08.2015 00:04 21,1 C 18,8 C 23,3 C 76 % 1019,8 hPa 0,0 l/m 12,8 km/h (3 Bft) NO22.5 45 0 min 0 lux 0 W/m
13.08.2015 00:10 21,1 C 18,7 C 23,3 C 76 % 1019,8 hPa 0,0 l/m 17,5 km/h (3 Bft) O-NO22.5 60 0 min 0 lux 0 W/m
13.08.2015 00:15 21,0 C 18,7 C 23,2 C 75 % 1019,8 hPa 0,0 l/m 16,2 km/h (3 Bft) NO22.5 40 0 min 0 lux 0 W/m
13.08.2015 00:20 20,9 C 18,7 C 23,2 C 76 % 1019,8 hPa 0,0 l/m 16,9 km/h (3 Bft) NO45 40 0 min 0 lux 0 W/m
13.08.2015 00:25 20,9 C 18,8 C 23,2 C 76 % 1019,8 hPa 0,0 l/m 18,1 km/h (3 Bft) NO45 35 0 min 0 lux 0 W/m
13.08.2015 00:30 20,9 C 18,7 C 23,2 C 76 % 1019,8 hPa 0,0 l/m 21,0 km/h (4 Bft) NO45 35 0 min 0 lux 0 W/m
13.08.2015 00:35 20,8 C 18,8 C 23,2 C 76 % 1018,8 hPa 0,0 l/m 21,0 km/h (4 Bft) NO45 35 0 min 0 lux 0 W/m
13.08.2015 00:39 20,8 C 18,8 C 23,2 C 76 % 1018,8 hPa 0,0 l/m 16,5 km/h (3 Bft) NO22.5 35 0 min 0 lux 0 W/m
13.08.2015 00:45 20,8 C 18,6 C 23,2 C 76 % 1018,8 hPa 0,0 l/m 16,0 km/h (3 Bft) NO45 35 0 min 0 lux 0 W/m
13.08.2015 00:50 20,7 C 18,7 C 23,2 C 77 % 1018,8 hPa 0,0 l/m 19,7 km/h (3 Bft) NO22.5 40 0 min 0 lux 0 W/m
13.08.2015 00:55 20,7 C 18,6 C 23,2 C 77 % 1018,8 hPa 0,0 l/m 14,4 km/h (3 Bft) N-NO22.5 30 0 min 0 lux 0 W/m
13.08.2015 01:00 20,6 C 18,5 C 23,2 C 77 % 1018,8 hPa 0,0 l/m 13,1 km/h (3 Bft) N-NO22.5 30 0 min 0 lux 0 W/m
13.08.2015 01:05 20,6 C 18,4 C 23,2 C 77 % 1018,8 hPa 0,0 l/m 13,1 km/h (3 Bft) N-NO45 30 0 min 0 lux 0 W/m
13.08.2015 01:09 20,4 C 18,3 C 23,2 C 77 % 1018,8 hPa 0,0 l/m 11,2 km/h (2 Bft) N-NO45 30 0 min 0 lux 0 W/m
13.08.2015 01:14 20,4 C 18,3 C 23,1 C 78 % 1018,8 hPa 0,0 l/m 14,6 km/h (3 Bft) N-NO22.5 20 0 min 0 lux 0 W/m
13.08.2015 01:20 20,4 C 18,4 C 23,1 C 78 % 1018,8 hPa 0,0 l/m 12,8 km/h (3 Bft) N-NO45 30 0 min 0 lux 0 W/m
13.08.2015 01:25 20,4 C 18,3 C 23,1 C 78 % 1018,8 hPa 0,0 l/m 12,8 km/h (3 Bft) N-NO45 30 0 min 0 lux 0 W/m
13.08.2015 01:30 20,3 C 18,2 C 23,1 C 78 % 1018,9 hPa 0,0 l/m 14,3 km/h (3 Bft) N-NO45 30 0 min 0 lux 0 W/m
13.08.2015 01:35 20,2 C 18,2 C 23,1 C 78 % 1018,9 hPa 0,0 l/m 16,6 km/h (3 Bft) NO45 40 0 min 0 lux 0 W/m
13.08.2015 01:40 20,2 C 18,2 C 23,1 C 78 % 1018,9 hPa 0,0 l/m 18,8 km/h (3 Bft) NO22.5 35 0 min 0 lux 0 W/m
13.08.2015 01:45 20,1 C 18,1 C 23,1 C 79 % 1018,9 hPa 0,0 l/m 17,1 km/h (3 Bft) N-NO45 25 0 min 0 lux 0 W/m
13.08.2015 01:49 20,1 C 18,2 C 23,0 C 79 % 1018,9 hPa 0,0 l/m 15,1 km/h (3 Bft) N-NO22.5 30 0 min 0 lux 0 W/m
13.08.2015 01:55 20,0 C 18,2 C 23,0 C 79 % 1018,9 hPa 0,0 l/m 12,6 km/h (3 Bft) N-NO22.5 20 0 min 0 lux 0 W/m
13.08.2015 02:00 20,0 C 18,1 C 23,1 C 79 % 1018,9 hPa 0,0 l/m 23,1 km/h (4 Bft) N-NO22.5 25 0 min 0 lux 0 W/m
13.08.2015 02:05 20,0 C 18,2 C 23,0 C 79 % 1018,9 hPa 0,0 l/m 15,6 km/h (3 Bft) N-NO45 30 0 min 0 lux 0 W/m
13.08.2015 02:10 19,9 C 18,1 C 23,0 C 80 % 1018,9 hPa 0,0 l/m 16,3 km/h (3 Bft) NO22.5 35 0 min 0 lux 0 W/m
13.08.2015 02:15 19,8 C 17,9 C 23,0 C 80 % 1018,9 hPa 0,0 l/m 18,6 km/h (3 Bft) NO22.5 45 0 min 0 lux 0 W/m
13.08.2015 02:19 19,8 C 17,9 C 23,0 C 80 % 1018,9 hPa 0,0 l/m 20,7 km/h (4 Bft) NO45 40 0 min 0 lux 0 W/m
13.08.2015 02:24 19,8 C 17,9 C 23,0 C 80 % 1018,9 hPa 0,0 l/m 22,3 km/h (4 Bft) N-NO45 30 0 min 0 lux 0 W/m
13.08.2015 02:30 19,8 C 17,9 C 23,0 C 80 % 1018,9 hPa 0,0 l/m 17,1 km/h (3 Bft) NO22.5 35 0 min 0 lux 0 W/m
13.08.2015 02:35 19,7 C 17,8 C 23,0 C 80 % 1018,9 hPa 0,0 l/m 15,9 km/h (3 Bft) NO22.5 50 0 min 0 lux 0 W/m
13.08.2015 02:40 19,6 C 17,7 C 22,9 C 80 % 1018,9 hPa 0,0 l/m 17,1 km/h (3 Bft) NO67.5 40 0 min 0 lux 0 W/m
13.08.2015 02:45 19,6 C 17,7 C 23,0 C 80 % 1018,9 hPa 0,0 l/m 15,0 km/h (3 Bft) NO67.5 35 0 min 0 lux 0 W/m
13.08.2015 02:50 19,6 C 17,6 C 22,9 C 80 % 1017,9 hPa 0,0 l/m 21,8 km/h (4 Bft) NO22.5 50 0 min 0 lux 0 W/m
13.08.2015 02:55 19,6 C 17,6 C 22,9 C 80 % 1017,9 hPa 0,0 l/m 13,4 km/h (3 Bft) NO22.5 40 0 min 0 lux 0 W/m
13.08.2015 02:59 19,5 C 17,5 C 22,9 C 81 % 1017,9 hPa 0,0 l/m 13,1 km/h (3 Bft) NO22.5 55 0 min 0 lux 0 W/m
13.08.2015 03:05 19,4 C 17,4 C 22,9 C 81 % 1017,9 hPa 0,0 l/m 17,5 km/h (3 Bft) NO22.5 50 0 min 0 lux 0 W/m
13.08.2015 03:10 19,4 C 17,2 C 22,9 C 81 % 1017,9 hPa 0,0 l/m 9,3 km/h (2 Bft) NO22.5 40 0 min 0 lux 0 W/m
13.08.2015 03:15 19,3 C 17,2 C 22,9 C 81 % 1017,9 hPa 0,0 l/m 9,3 km/h (2 Bft) NO22.5 40 0 min 0 lux 0 W/m
13.08.2015 03:20 19,4 C 17,2 C 22,9 C 81 % 1017,9 hPa 0,0 l/m 11,8 km/h (2 Bft) N-NO45 30 0 min 0 lux 0 W/m
13.08.2015 03:25 19,3 C 17,2 C 22,8 C 81 % 1017,9 hPa 0,0 l/m 8,5 km/h (2 Bft) NO45 40 0 min 0 lux 0 W/m
13.08.2015 03:30 19,2 C 17,1 C 22,9 C 81 % 1017,9 hPa 0,0 l/m 9,4 km/h (2 Bft) NO45 35 0 min 0 lux 0 W/m
13.08.2015 03:35 19,2 C 17,2 C 22,8 C 82 % 1017,9 hPa 0,0 l/m 12,5 km/h (2 Bft) NO22.5 40 0 min 0 lux 0 W/m
13.08.2015 03:40 19,2 C 17,2 C 22,8 C 82 % 1017,9 hPa 0,0 l/m 14,5 km/h (3 Bft) NO22.5 45 0 min 0 lux 0 W/m
13.08.2015 03:45 19,2 C 17,2 C 22,8 C 82 % 1017,9 hPa 0,0 l/m 14,4 km/h (3 Bft) NO22.5 35 0 min 0 lux 0 W/m
13.08.2015 03:50 19,2 C 17,2 C 22,8 C 82 % 1017,9 hPa 0,0 l/m 15,4 km/h (3 Bft) NO45 50 0 min 0 lux 0 W/m
13.08.2015 03:55 19,2 C 17,2 C 22,8 C 82 % 1017,9 hPa 0,0 l/m 13,2 km/h (3 Bft) NO22.5 40 0 min 0 lux 0 W/m
13.08.2015 04:00 19,1 C 17,1 C 22,8 C 82 % 1017,9 hPa 0,0 l/m 18,5 km/h (3 Bft) NO45 45 0 min 0 lux 0 W/m
13.08.2015 04:05 19,0 C 17,0 C 22,8 C 82 % 1017,9 hPa 0,0 l/m 11,1 km/h (2 Bft) NO45 55 0 min 0 lux 0 W/m
13.08.2015 04:10 19,0 C 17,0 C 22,7 C 82 % 1017,9 hPa 0,0 l/m 10,7 km/h (2 Bft) NO22.5 40 0 min 0 lux 0 W/m
13.08.2015 04:15 19,1 C 17,1 C 22,7 C 83 % 1017,9 hPa 0,0 l/m 7,4 km/h (2 Bft) NO45 50 0 min 0 lux 0 W/m
13.08.2015 04:20 19,0 C 17,0 C 22,7 C 82 % 1017,9 hPa 0,0 l/m 11,0 km/h (2 Bft) NO22.5 45 0 min 0 lux 0 W/m
13.08.2015 04:25 18,9 C 16,9 C 22,7 C 83 % 1017,9 hPa 0,0 l/m 11,0 km/h (2 Bft) NO22.5 45 0 min 0 lux 0 W/m
13.08.2015 04:30 18,9 C 16,7 C 22,7 C 82 % 1017,9 hPa 0,0 l/m 12,1 km/h (2 Bft) NO45 40 0 min 0 lux 0 W/m
13.08.2015 04:35 18,8 C 16,7 C 22,7 C 83 % 1017,9 hPa 0,0 l/m 12,1 km/h (2 Bft) NO45 40 0 min 0 lux 0 W/m
13.08.2015 04:40 18,8 C 16,9 C 22,7 C 83 % 1017,9 hPa 0,0 l/m 7,6 km/h (2 Bft) NO45 40 0 min 0 lux 0 W/m
13.08.2015 04:45 18,8 C 16,8 C 22,7 C 83 % 1017,9 hPa 0,0 l/m 16,9 km/h (3 Bft) NO45 40 0 min 0 lux 0 W/m
13.08.2015 04:50 18,8 C 16,8 C 22,7 C 83 % 1017,9 hPa 0,0 l/m 10,7 km/h (2 Bft) NO22.5 35 0 min 0 lux 0 W/m
13.08.2015 04:55 18,8 C 16,8 C 22,7 C 83 % 1017,9 hPa 0,0 l/m 10,6 km/h (2 Bft) N-NO45 30 0 min 0 lux 0 W/m
13.08.2015 05:00 18,7 C 16,8 C 22,6 C 84 % 1017,9 hPa 0,0 l/m 14,3 km/h (3 Bft) NO67.5 50 0 min 0 lux 0 W/m
13.08.2015 05:05 18,7 C 16,8 C 22,7 C 84 % 1017,9 hPa 0,0 l/m 13,6 km/h (3 Bft) NO45 35 0 min 0 lux 0 W/m
13.08.2015 05:10 18,6 C 16,8 C 22,7 C 84 % 1017,9 hPa 0,0 l/m 13,6 km/h (3 Bft) N-NO67.5 30 0 min 0 lux 0 W/m
13.08.2015 05:15 18,6 C 16,6 C 22,6 C 84 % 1017,9 hPa 0,0 l/m 11,1 km/h (2 Bft) NO45 50 0 min 0 lux 0 W/m
13.08.2015 05:20 18,6 C 16,8 C 22,6 C 84 % 1017,9 hPa 0,0 l/m 14,2 km/h (3 Bft) N-NO45 25 0 min 0 lux 0 W/m
13.08.2015 05:25 18,6 C 16,9 C 22,6 C 84 % 1017,9 hPa 0,0 l/m 14,2 km/h (3 Bft) N-NO45 25 0 min 0 lux 0 W/m
13.08.2015 05:30 18,5 C 16,9 C 22,6 C 84 % 1017,9 hPa 0,0 l/m 17,3 km/h (3 Bft) NO45 40 0 min 0 lux 0 W/m
13.08.2015 05:35 18,5 C 16,8 C 22,6 C 84 % 1016,9 hPa 0,0 l/m 11,1 km/h (2 Bft) NO45 35 0 min 0 lux 0 W/m
13.08.2015 05:40 18,5 C 16,7 C 22,6 C 84 % 1016,9 hPa 0,0 l/m 12,3 km/h (2 Bft) NO22.5 35 0 min 0 lux 0 W/m
13.08.2015 05:45 18,4 C 16,8 C 22,6 C 84 % 1016,9 hPa 0,0 l/m 16,0 km/h (3 Bft) NO22.5 40 0 min 0 lux 0 W/m
13.08.2015 05:50 18,4 C 16,8 C 22,5 C 84 % 1017,9 hPa 0,0 l/m 13,5 km/h (3 Bft) NO67.5 35 0 min 0 lux 0 W/m
13.08.2015 05:55 18,4 C 16,7 C 22,5 C 84 % 1016,9 hPa 0,0 l/m 13,3 km/h (3 Bft) NO45 35 0 min 48 lux 0 W/m
13.08.2015 06:00 18,4 C 16,7 C 22,5 C 84 % 1016,9 hPa 0,0 l/m 12,6 km/h (3 Bft) NO45 50 0 min 99 lux 0 W/m
13.08.2015 06:05 18,3 C 16,7 C 22,5 C 84 % 1016,9 hPa 0,0 l/m 15,7 km/h (3 Bft) NO45 50 0 min 176 lux 0 W/m
13.08.2015 06:10 18,3 C 16,7 C 22,5 C 84 % 1016,9 hPa 0,0 l/m 9,7 km/h (2 Bft) NO45 50 0 min 305 lux 0 W/m
13.08.2015 06:15 18,4 C 16,7 C 22,5 C 84 % 1017,9 hPa 0,0 l/m 12,8 km/h (3 Bft) N-NO22.5 30 0 min 463 lux 0 W/m
13.08.2015 06:20 18,3 C 16,8 C 22,5 C 84 % 1017,9 hPa 0,0 l/m 12,3 km/h (2 Bft) NO45 40 0 min 664 lux 0 W/m
13.08.2015 06:25 18,4 C 16,9 C 22,5 C 85 % 1017,9 hPa 0,0 l/m 12,3 km/h (2 Bft) NO22.5 35 0 min 999 lux 7 W/m
13.08.2015 06:30 18,4 C 16,7 C 22,5 C 85 % 1017,9 hPa 0,0 l/m 10,3 km/h (2 Bft) NO45 50 0 min 1,16 klux 8 W/m
13.08.2015 06:35 18,3 C 16,8 C 22,5 C 85 % 1017,9 hPa 0,0 l/m 16,0 km/h (3 Bft) NO67.5 50 0 min 1,55 klux 11 W/m
13.08.2015 06:40 18,3 C 16,9 C 22,4 C 84 % 1017,9 hPa 0,0 l/m 12,6 km/h (3 Bft) NO45 45 0 min 2,00 klux 14 W/m
13.08.2015 06:45 18,3 C 17,0 C 22,5 C 85 % 1017,9 hPa 0,0 l/m 22,2 km/h (4 Bft) O-NO45 60 0 min 2,50 klux 17 W/m
13.08.2015 06:50 18,3 C 17,0 C 22,4 C 85 % 1017,9 hPa 0,0 l/m 14,5 km/h (3 Bft) NO22.5 50 0 min 3,08 klux 21 W/m
13.08.2015 06:55 18,3 C 17,2 C 22,4 C 85 % 1017,9 hPa 0,0 l/m 15,5 km/h (3 Bft) NO45 40 0 min 3,67 klux 25 W/m
13.08.2015 07:00 18,3 C 17,3 C 22,4 C 85 % 1017,9 hPa 0,0 l/m 7,6 km/h (2 Bft) NO45 55 0 min 4,10 klux 28 W/m
13.08.2015 07:05 18,3 C 17,4 C 22,4 C 85 % 1017,9 hPa 0,0 l/m 15,6 km/h (3 Bft) NO22.5 45 0 min 5,10 klux 35 W/m
13.08.2015 07:10 18,3 C 17,5 C 22,4 C 85 % 1017,9 hPa 0,0 l/m 6,7 km/h (2 Bft) NO22.5 45 0 min 6,27 klux 43 W/m
13.08.2015 07:15 18,4 C 17,7 C 22,4 C 85 % 1017,9 hPa 0,0 l/m 12,3 km/h (2 Bft) O-NO22.5 65 0 min 6,82 klux 47 W/m
13.08.2015 07:20 18,4 C 17,9 C 22,4 C 85 % 1017,9 hPa 0,0 l/m 15,5 km/h (3 Bft) NO45 50 0 min 7,50 klux 51 W/m
13.08.2015 07:25 18,4 C 17,9 C 22,4 C 84 % 1017,9 hPa 0,0 l/m 13,5 km/h (3 Bft) NO67.5 50 0 min 8,33 klux 57 W/m
13.08.2015 07:30 18,5 C 18,1 C 22,4 C 84 % 1016,9 hPa 0,0 l/m 12,0 km/h (2 Bft) NO45 55 0 min 9,4 klux 64 W/m
13.08.2015 07:35 18,5 C 18,2 C 22,4 C 84 % 1016,9 hPa 0,0 l/m 12,5 km/h (2 Bft) NO45 50 0 min 10,2 klux 70 W/m
13.08.2015 07:40 18,5 C 18,3 C 22,3 C 84 % 1016,9 hPa 0,0 l/m 10,2 km/h (2 Bft) O45 80 0 min 13,2 klux 90 W/m
13.08.2015 07:45 18,6 C 18,5 C 22,3 C 84 % 1016,9 hPa 0,0 l/m 18,5 km/h (3 Bft) O45 80 0 min 15,6 klux 107 W/m
13.08.2015 07:50 18,7 C 18,7 C 22,3 C 84 % 1016,9 hPa 0,0 l/m 6,3 km/h (2 Bft) O-NO22.5 60 0 min 15,9 klux 109 W/m
13.08.2015 07:55 18,8 C 18,7 C 22,3 C 84 % 1016,9 hPa 0,0 l/m 6,7 km/h (2 Bft) O-NO45 65 0 min 18,4 klux 126 W/m
13.08.2015 08:00 18,8 C 19,1 C 22,3 C 84 % 1016,9 hPa 0,0 l/m 0,3 km/h (0 Bft) O-NO 75 5 min 20,7 klux 142 W/m
13.08.2015 08:05 19,0 C 19,6 C 22,3 C 84 % 1016,9 hPa 0,0 l/m 0,3 km/h (0 Bft) O-NO 75 5 min 22,2 klux 152 W/m
13.08.2015 08:10 19,1 C 19,9 C 22,3 C 83 % 1016,9 hPa 0,0 l/m 15,8 km/h (3 Bft) O22.5 80 5 min 24,9 klux 170 W/m
13.08.2015 08:15 19,2 C 20,3 C 22,3 C 83 % 1016,9 hPa 0,0 l/m 13,1 km/h (3 Bft) NO45 55 5 min 25,6 klux 175 W/m
13.08.2015 08:20 19,4 C 20,8 C 22,3 C 82 % 1016,9 hPa 0,0 l/m 14,4 km/h (3 Bft) O22.5 90 5 min 27,5 klux 188 W/m
13.08.2015 08:25 19,5 C 21,2 C 22,3 C 81 % 1016,9 hPa 0,0 l/m 13,1 km/h (3 Bft) O45 90 5 min 28,7 klux 196 W/m
13.08.2015 08:30 19,6 C 21,9 C 22,3 C 81 % 1016,9 hPa 0,0 l/m 14,0 km/h (3 Bft) O45 90 5 min 30,2 klux 207 W/m
13.08.2015 08:35 19,8 C 23,6 C 22,3 C 80 % 1016,9 hPa 0,0 l/m 13,1 km/h (3 Bft) O45 85 5 min 31,8 klux 218 W/m
13.08.2015 08:40 19,8 C 25,1 C 22,3 C 80 % 1016,9 hPa 0,0 l/m 9,0 km/h (2 Bft) O22.5 90 5 min 33,9 klux 232 W/m
13.08.2015 08:45 20,0 C 25,6 C 22,3 C 80 % 1016,8 hPa 0,0 l/m 14,7 km/h (3 Bft) O45 90 5 min 35,8 klux 245 W/m
13.08.2015 08:50 20,2 C 26,7 C 22,3 C 79 % 1016,8 hPa 0,0 l/m 13,8 km/h (3 Bft) O67.5 85 5 min 38,2 klux 261 W/m
13.08.2015 08:55 20,3 C 27,8 C 22,3 C 79 % 1016,8 hPa 0,0 l/m 14,0 km/h (3 Bft) O67.5 85 5 min 39,3 klux 269 W/m
13.08.2015 09:00 20,4 C 28,4 C 22,3 C 78 % 1016,8 hPa 0,0 l/m 16,3 km/h (3 Bft) O-SO67.5 115 5 min 39,3 klux 269 W/m
13.08.2015 09:05 20,4 C 28,7 C 22,3 C 78 % 1016,8 hPa 0,0 l/m 22,6 km/h (4 Bft) O45 90 5 min 41,6 klux 285 W/m
13.08.2015 09:10 20,6 C 29,7 C 22,3 C 78 % 1015,8 hPa 0,0 l/m 17,1 km/h (3 Bft) O-NO22.5 75 5 min 43,2 klux 295 W/m
13.08.2015 09:15 20,8 C 30,5 C 22,3 C 77 % 1015,8 hPa 0,0 l/m 17,0 km/h (3 Bft) O45 80 5 min 45,6 klux 312 W/m
13.08.2015 09:20 21,2 C 31,0 C 22,3 C 76 % 1015,8 hPa 0,0 l/m 13,0 km/h (3 Bft) O-NO45 70 5 min 46,6 klux 319 W/m
13.08.2015 09:25 21,2 C 32,0 C 22,3 C 76 % 1015,8 hPa 0,0 l/m 2,3 km/h (1 Bft) O-SO45 105 5 min 48,3 klux 330 W/m
13.08.2015 09:30 21,6 C 33,2 C 22,4 C 76 % 1015,8 hPa 0,0 l/m 15,8 km/h (3 Bft) O45 80 5 min 48,8 klux 334 W/m
13.08.2015 09:35 21,6 C 34,0 C 22,4 C 74 % 1015,8 hPa 0,0 l/m 12,5 km/h (2 Bft) O-NO45 75 5 min 51,7 klux 354 W/m
13.08.2015 09:40 22,2 C 35,1 C 22,4 C 74 % 1015,8 hPa 0,0 l/m 10,7 km/h (2 Bft) NO22.5 40 5 min 51,9 klux 355 W/m
13.08.2015 09:45 22,2 C 35,9 C 22,5 C 73 % 1015,8 hPa 0,0 l/m 8,2 km/h (2 Bft) O67.5 85 5 min 53,5 klux 366 W/m
13.08.2015 09:50 22,4 C 36,6 C 22,5 C 73 % 1015,8 hPa 0,0 l/m 9,7 km/h (2 Bft) O-SO45 105 5 min 55,3 klux 378 W/m
13.08.2015 09:55 22,4 C 36,8 C 22,5 C 72 % 1015,8 hPa 0,0 l/m 7,7 km/h (2 Bft) O-SO45 110 5 min 57,2 klux 391 W/m
13.08.2015 10:00 22,4 C 37,8 C 22,5 C 72 % 1015,8 hPa 0,0 l/m 9,3 km/h (2 Bft) O-SO45 105 5 min 57,9 klux 396 W/m
13.08.2015 10:05 22,8 C 39,1 C 22,6 C 72 % 1015,8 hPa 0,0 l/m 9,4 km/h (2 Bft) O-SO45 105 5 min 59,4 klux 406 W/m
13.08.2015 10:10 23,0 C 39,5 C 22,6 C 70 % 1015,8 hPa 0,0 l/m 11,5 km/h (2 Bft) O22.5 85 5 min 60,9 klux 417 W/m
13.08.2015 10:15 23,0 C 39,5 C 22,6 C 70 % 1015,8 hPa 0,0 l/m 12,6 km/h (3 Bft) NO67.5 45 5 min 61,7 klux 422 W/m
13.08.2015 10:20 23,0 C 40,7 C 22,6 C 70 % 1015,8 hPa 0,0 l/m 1,9 km/h (1 Bft) SO22.5 130 5 min 63,0 klux 431 W/m
13.08.2015 10:25 23,0 C 41,0 C 22,6 C 70 % 1015,8 hPa 0,0 l/m 13,0 km/h (3 Bft) O-SO67.5 105 5 min 64,6 klux 442 W/m
13.08.2015 10:30 23,0 C 41,4 C 22,7 C 70 % 1015,8 hPa 0,0 l/m 9,4 km/h (2 Bft) O-NO22.5 70 5 min 65,1 klux 445 W/m
13.08.2015 10:35 23,0 C 41,2 C 22,7 C 70 % 1015,8 hPa 0,0 l/m 17,8 km/h (3 Bft) N-NO22.5 20 5 min 66,3 klux 453 W/m
13.08.2015 10:40 23,0 C 41,7 C 22,7 C 70 % 1015,8 hPa 0,0 l/m 14,6 km/h (3 Bft) N-NO22.5 30 5 min 67,3 klux 460 W/m
13.08.2015 10:45 23,0 C 42,5 C 22,8 C 70 % 1015,8 hPa 0,0 l/m 8,2 km/h (2 Bft) NO45 45 5 min 68,2 klux 466 W/m
13.08.2015 10:50 23,0 C 43,4 C 22,8 C 70 % 1015,8 hPa 0,0 l/m 10,8 km/h (2 Bft) NO45 35 5 min 69,8 klux 477 W/m
13.08.2015 10:55 23,0 C 42,7 C 22,9 C 70 % 1015,8 hPa 0,0 l/m 13,6 km/h (3 Bft) O45 80 5 min 70,0 klux 479 W/m
13.08.2015 11:00 23,0 C 43,8 C 22,9 C 70 % 1015,8 hPa 0,0 l/m 10,1 km/h (2 Bft) O22.5 80 5 min 71,0 klux 486 W/m
13.08.2015 11:05 23,0 C 44,4 C 22,9 C 70 % 1015,8 hPa 0,0 l/m 12,9 km/h (3 Bft) NO67.5 45 5 min 72,4 klux 495 W/m
13.08.2015 11:10 23,0 C 43,3 C 22,9 C 70 % 1015,8 hPa 0,0 l/m 13,3 km/h (3 Bft) N67.5 10 5 min 73,6 klux 503 W/m
13.08.2015 11:15 23,0 C 43,4 C 23,0 C 70 % 1014,8 hPa 0,0 l/m 13,6 km/h (3 Bft) N-NO45 25 5 min 74,8 klux 512 W/m
13.08.2015 11:20 23,0 C 44,4 C 23,0 C 70 % 1014,8 hPa 0,0 l/m 12,0 km/h (2 Bft) N-NO22.5 25 5 min 75,2 klux 514 W/m
13.08.2015 11:25 23,0 C 45,5 C 23,1 C 70 % 1014,8 hPa 0,0 l/m 16,5 km/h (3 Bft) N-NO67.5 30 5 min 75,9 klux 519 W/m
13.08.2015 11:30 23,0 C 46,5 C 23,1 C 70 % 1014,8 hPa 0,0 l/m 12,8 km/h (3 Bft) N-NO45 25 5 min 77,8 klux 532 W/m
13.08.2015 11:35 23,0 C 47,7 C 23,1 C 70 % 1014,8 hPa 0,0 l/m 14,8 km/h (3 Bft) NO45 40 5 min 77,7 klux 531 W/m
13.08.2015 11:40 23,0 C 46,1 C 23,2 C 70 % 1014,8 hPa 0,0 l/m 11,0 km/h (2 Bft) NO45 45 5 min 79,2 klux 542 W/m
13.08.2015 11:44 23,0 C 47,1 C 23,2 C 70 % 1014,8 hPa 0,0 l/m 12,1 km/h (2 Bft) N-NO22.5 30 4 min 79,9 klux 547 W/m
13.08.2015 11:50 23,0 C 47,1 C 23,2 C 70 % 1014,8 hPa 0,0 l/m 12,4 km/h (2 Bft) NO67.5 35 6 min 81,0 klux 554 W/m
13.08.2015 11:55 23,0 C 47,0 C 23,3 C 70 % 1014,8 hPa 0,0 l/m 17,4 km/h (3 Bft) NO22.5 40 5 min 80,8 klux 553 W/m
13.08.2015 12:00 23,0 C 46,4 C 23,3 C 70 % 1014,8 hPa 0,0 l/m 17,3 km/h (3 Bft) N-NO45 25 5 min 81,4 klux 557 W/m
13.08.2015 12:05 23,0 C 46,7 C 23,4 C 70 % 1014,8 hPa 0,0 l/m 17,3 km/h (3 Bft) N-NO45 25 5 min 82,3 klux 563 W/m
13.08.2015 12:10 23,0 C 47,9 C 23,4 C 70 % 1014,8 hPa 0,0 l/m 15,1 km/h (3 Bft) NO67.5 40 5 min 83,5 klux 571 W/m
13.08.2015 12:15 23,0 C 49,6 C 23,5 C 70 % 1014,8 hPa 0,0 l/m 13,1 km/h (3 Bft) NO45 35 5 min 84,0 klux 575 W/m
13.08.2015 12:20 23,0 C 49,7 C 23,5 C 70 % 1014,8 hPa 0,0 l/m 21,4 km/h (4 Bft) O67.5 85 5 min 84,3 klux 577 W/m
13.08.2015 12:25 23,0 C 50,2 C 23,5 C 70 % 1013,8 hPa 0,0 l/m 14,3 km/h (3 Bft) O45 80 5 min 85,0 klux 581 W/m
13.08.2015 12:30 23,0 C 50,7 C 23,6 C 70 % 1013,8 hPa 0,0 l/m 13,6 km/h (3 Bft) NO45 55 5 min 85,4 klux 584 W/m
13.08.2015 12:35 23,0 C 50,9 C 23,7 C 70 % 1013,8 hPa 0,0 l/m 2,5 km/h (1 Bft) O-NO45 60 5 min 86,4 klux 591 W/m
13.08.2015 12:40 23,0 C 51,6 C 23,7 C 70 % 1013,8 hPa 0,0 l/m 16,6 km/h (3 Bft) O-NO67.5 60 5 min 86,3 klux 590 W/m
13.08.2015 12:45 23,0 C 50,8 C 23,7 C 70 % 1013,8 hPa 0,0 l/m 16,2 km/h (3 Bft) O-NO67.5 60 5 min 86,9 klux 594 W/m
13.08.2015 12:50 23,0 C 48,6 C 23,8 C 70 % 1013,8 hPa 0,0 l/m 25,8 km/h (4 Bft) NO45 40 5 min 87,6 klux 599 W/m
13.08.2015 12:55 23,0 C 49,6 C 23,9 C 70 % 1013,8 hPa 0,0 l/m 24,5 km/h (4 Bft) O67.5 80 5 min 88,5 klux 605 W/m
13.08.2015 13:00 23,0 C 51,1 C 23,9 C 70 % 1013,8 hPa 0,0 l/m 24,5 km/h (4 Bft) O67.5 80 5 min 89,0 klux 609 W/m
13.08.2015 13:05 23,0 C 52,7 C 24,0 C 70 % 1013,8 hPa 0,0 l/m 10,8 km/h (2 Bft) O-NO67.5 75 5 min 88,7 klux 607 W/m
13.08.2015 13:10 23,0 C 54,0 C 24,0 C 70 % 1013,8 hPa 0,0 l/m 22,1 km/h (4 Bft) O45 100 5 min 88,0 klux 602 W/m
13.08.2015 13:15 23,0 C 54,1 C 24,1 C 70 % 1013,8 hPa 0,0 l/m 17,5 km/h (3 Bft) SO67.5 130 5 min 87,9 klux 601 W/m
13.08.2015 13:20 23,0 C 54,6 C 24,2 C 70 % 1013,8 hPa 0,0 l/m 17,3 km/h (3 Bft) O45 85 5 min 87,3 klux 597 W/m
13.08.2015 13:25 23,0 C 54,6 C 24,2 C 70 % 1013,8 hPa 0,0 l/m 12,9 km/h (3 Bft) O-SO45 105 5 min 86,9 klux 594 W/m
13.08.2015 13:30 23,0 C 54,7 C 24,2 C 70 % 1013,8 hPa 0,0 l/m 14,3 km/h (3 Bft) O-NO45 65 5 min 86,7 klux 593 W/m
13.08.2015 13:35 23,0 C 54,8 C 24,2 C 70 % 1013,8 hPa 0,0 l/m 2,4 km/h (1 Bft) O-NO67.5 75 5 min 87,2 klux 596 W/m
13.08.2015 13:40 23,0 C 54,9 C 24,3 C 70 % 1013,8 hPa 0,0 l/m 16,3 km/h (3 Bft) O45 80 5 min 87,0 klux 595 W/m
13.08.2015 13:45 23,0 C 55,1 C 24,4 C 70 % 1013,8 hPa 0,0 l/m 17,4 km/h (3 Bft) O-SO67.5 110 5 min 84,9 klux 581 W/m
13.08.2015 13:50 23,0 C 54,3 C 24,4 C 70 % 1013,8 hPa 0,0 l/m 18,7 km/h (3 Bft) O45 95 5 min 87,8 klux 601 W/m
13.08.2015 13:55 29,6 C 55,0 C 24,4 C 56 % 1012,7 hPa 0,0 l/m 0,9 km/h (0 Bft) O-SO45 105 5 min 86,7 klux 593 W/m
13.08.2015 14:00 29,9 C 54,6 C 24,5 C 56 % 1012,7 hPa 0,0 l/m 10,6 km/h (2 Bft) O-NO22.5 75 5 min 85,5 klux 585 W/m
13.08.2015 14:05 30,1 C 54,3 C 24,6 C 55 % 1012,7 hPa 0,0 l/m 14,6 km/h (3 Bft) NO45 35 5 min 82,5 klux 564 W/m
13.08.2015 14:10 30,2 C 54,4 C 24,6 C 54 % 1012,7 hPa 0,0 l/m 17,5 km/h (3 Bft) O67.5 90 5 min 85,5 klux 585 W/m
13.08.2015 14:15 30,1 C 54,5 C 24,7 C 55 % 1012,7 hPa 0,0 l/m 17,9 km/h (3 Bft) O22.5 90 5 min 87,9 klux 601 W/m
13.08.2015 14:20 30,1 C 54,3 C 24,7 C 55 % 1012,7 hPa 0,0 l/m 18,0 km/h (3 Bft) O45 90 5 min 88,1 klux 603 W/m
13.08.2015 14:25 30,1 C 54,2 C 24,7 C 55 % 1012,7 hPa 0,0 l/m 15,0 km/h (3 Bft) O67.5 95 5 min 88,1 klux 603 W/m
13.08.2015 14:30 30,3 C 55,2 C 24,7 C 54 % 1012,7 hPa 0,0 l/m 14,1 km/h (3 Bft) O45 80 5 min 86,9 klux 594 W/m
13.08.2015 14:35 30,3 C 55,0 C 24,8 C 54 % 1012,7 hPa 0,0 l/m 17,5 km/h (3 Bft) O67.5 80 5 min 86,5 klux 592 W/m
13.08.2015 14:40 30,6 C 54,8 C 24,9 C 54 % 1012,7 hPa 0,0 l/m 25,3 km/h (4 Bft) O67.5 85 5 min 87,2 klux 596 W/m
13.08.2015 14:45 30,6 C 54,5 C 24,9 C 54 % 1012,7 hPa 0,0 l/m 14,3 km/h (3 Bft) O45 90 5 min 86,5 klux 592 W/m
13.08.2015 14:50 30,7 C 53,8 C 25,0 C 53 % 1012,7 hPa 0,0 l/m 20,6 km/h (4 Bft) O45 90 5 min 86,2 klux 590 W/m
13.08.2015 14:55 30,7 C 53,9 C 25,1 C 53 % 1012,7 hPa 0,0 l/m 20,8 km/h (4 Bft) O-SO67.5 110 5 min 85,0 klux 581 W/m
13.08.2015 15:00 30,7 C 53,8 C 25,1 C 53 % 1012,7 hPa 0,0 l/m 22,7 km/h (4 Bft) O67.5 90 5 min 84,6 klux 579 W/m
13.08.2015 15:05 30,9 C 53,2 C 25,1 C 54 % 1011,6 hPa 0,0 l/m 21,0 km/h (4 Bft) O67.5 100 5 min 82,8 klux 566 W/m
13.08.2015 15:10 30,9 C 53,8 C 25,2 C 53 % 1011,6 hPa 0,0 l/m 16,2 km/h (3 Bft) SO67.5 140 5 min 82,1 klux 562 W/m
13.08.2015 15:15 31,0 C 53,4 C 25,2 C 54 % 1011,6 hPa 0,0 l/m 20,8 km/h (4 Bft) O45 100 5 min 82,1 klux 562 W/m
13.08.2015 15:20 31,2 C 53,8 C 25,2 C 54 % 1011,6 hPa 0,0 l/m 10,3 km/h (2 Bft) O45 100 5 min 80,8 klux 553 W/m
13.08.2015 15:25 31,5 C 53,6 C 25,3 C 53 % 1011,6 hPa 0,0 l/m 13,5 km/h (3 Bft) O67.5 95 5 min 77,0 klux 527 W/m
13.08.2015 15:30 31,3 C 52,5 C 25,4 C 53 % 1011,6 hPa 0,0 l/m 18,0 km/h (3 Bft) O-NO45 75 5 min 75,0 klux 513 W/m
13.08.2015 15:35 31,3 C 51,7 C 25,4 C 51 % 1011,6 hPa 0,0 l/m 19,4 km/h (3 Bft) O45 85 5 min 78,5 klux 537 W/m
13.08.2015 15:40 31,8 C 53,3 C 25,6 C 53 % 1011,6 hPa 0,0 l/m 6,8 km/h (2 Bft) O67.5 80 5 min 81,6 klux 558 W/m
13.08.2015 15:45 31,8 C 53,9 C 25,6 C 53 % 1011,6 hPa 0,0 l/m 15,7 km/h (3 Bft) O-NO45 70 5 min 80,3 klux 549 W/m
13.08.2015 15:50 31,8 C 53,4 C 25,7 C 51 % 1011,6 hPa 0,0 l/m 24,3 km/h (4 Bft) O-SO45 115 5 min 76,0 klux 520 W/m
13.08.2015 15:55 31,8 C 53,0 C 25,7 C 51 % 1011,6 hPa 0,0 l/m 21,7 km/h (4 Bft) O67.5 100 5 min 74,5 klux 510 W/m
13.08.2015 16:00 31,8 C 52,5 C 25,7 C 51 % 1011,6 hPa 0,0 l/m 16,0 km/h (3 Bft) O67.5 95 5 min 73,3 klux 501 W/m
13.08.2015 16:05 31,6 C 52,2 C 25,8 C 52 % 1011,6 hPa 0,0 l/m 17,0 km/h (3 Bft) O67.5 85 5 min 73,9 klux 505 W/m
13.08.2015 16:10 32,1 C 51,1 C 25,8 C 51 % 1011,6 hPa 0,0 l/m 23,0 km/h (4 Bft) O-NO67.5 75 5 min 73,3 klux 501 W/m
13.08.2015 16:15 32,1 C 51,0 C 25,9 C 51 % 1011,6 hPa 0,0 l/m 22,3 km/h (4 Bft) O67.5 90 5 min 67,9 klux 464 W/m
13.08.2015 16:20 32,1 C 50,5 C 25,9 C 51 % 1011,6 hPa 0,0 l/m 25,5 km/h (4 Bft) O67.5 95 5 min 65,6 klux 449 W/m
13.08.2015 16:25 31,4 C 48,7 C 26,0 C 52 % 1011,6 hPa 0,0 l/m 17,5 km/h (3 Bft) O45 100 5 min 61,9 klux 423 W/m
13.08.2015 16:30 31,4 C 48,7 C 26,0 C 53 % 1010,6 hPa 0,0 l/m 20,7 km/h (4 Bft) O45 90 5 min 66,0 klux 451 W/m
13.08.2015 16:35 31,4 C 48,4 C 26,0 C 53 % 1010,6 hPa 0,0 l/m 22,5 km/h (4 Bft) O-NO67.5 65 5 min 68,3 klux 467 W/m
13.08.2015 16:40 31,4 C 48,4 C 26,1 C 53 % 1010,6 hPa 0,0 l/m 22,3 km/h (4 Bft) O-NO67.5 65 5 min 54,5 klux 373 W/m
13.08.2015 16:45 31,9 C 48,2 C 26,1 C 54 % 1010,6 hPa 0,0 l/m 19,5 km/h (3 Bft) O45 85 5 min 65,4 klux 447 W/m
13.08.2015 16:50 31,9 C 48,0 C 26,2 C 54 % 1010,6 hPa 0,0 l/m 16,4 km/h (3 Bft) O-NO45 75 5 min 64,3 klux 440 W/m
13.08.2015 16:55 31,9 C 47,4 C 26,2 C 54 % 1010,6 hPa 0,0 l/m 24,6 km/h (4 Bft) O67.5 95 5 min 63,5 klux 434 W/m
13.08.2015 17:00 31,9 C 46,7 C 26,2 C 54 % 1010,6 hPa 0,0 l/m 28,0 km/h (5 Bft) O67.5 90 5 min 61,5 klux 421 W/m
13.08.2015 17:05 31,9 C 46,3 C 26,3 C 54 % 1010,6 hPa 0,0 l/m 18,5 km/h (3 Bft) O-NO45 75 5 min 57,3 klux 392 W/m
13.08.2015 17:10 31,7 C 45,5 C 26,3 C 52 % 1010,6 hPa 0,0 l/m 20,5 km/h (4 Bft) O45 80 5 min 54,8 klux 375 W/m
13.08.2015 17:15 31,7 C 45,5 C 26,4 C 52 % 1010,6 hPa 0,0 l/m 31,9 km/h (5 Bft) O67.5 95 5 min 55,0 klux 376 W/m
13.08.2015 17:20 31,7 C 45,0 C 26,4 C 52 % 1009,6 hPa 0,0 l/m 16,4 km/h (3 Bft) O67.5 95 5 min 54,3 klux 371 W/m
13.08.2015 17:25 31,7 C 44,9 C 26,4 C 52 % 1009,6 hPa 0,0 l/m 17,3 km/h (3 Bft) O-SO45 105 5 min 51,6 klux 353 W/m
13.08.2015 17:30 31,7 C 43,7 C 26,4 C 52 % 1009,6 hPa 0,0 l/m 19,6 km/h (3 Bft) O67.5 95 5 min 47,1 klux 322 W/m
13.08.2015 17:35 31,7 C 42,5 C 26,5 C 52 % 1009,6 hPa 0,0 l/m 24,2 km/h (4 Bft) O67.5 100 5 min 44,3 klux 303 W/m
13.08.2015 17:40 31,2 C 42,1 C 26,5 C 53 % 1009,6 hPa 0,0 l/m 20,6 km/h (4 Bft) O-NO45 65 5 min 44,4 klux 304 W/m
13.08.2015 17:45 31,3 C 41,8 C 26,5 C 54 % 1009,6 hPa 0,0 l/m 16,6 km/h (3 Bft) O67.5 80 5 min 44,0 klux 301 W/m
13.08.2015 17:50 31,4 C 41,1 C 26,5 C 53 % 1009,6 hPa 0,0 l/m 22,8 km/h (4 Bft) O-NO45 75 5 min 40,9 klux 280 W/m
13.08.2015 17:55 31,4 C 41,0 C 26,6 C 54 % 1009,6 hPa 0,0 l/m 19,1 km/h (3 Bft) O-NO67.5 75 5 min 39,3 klux 269 W/m
13.08.2015 18:00 31,4 C 40,8 C 26,6 C 54 % 1009,6 hPa 0,0 l/m 23,0 km/h (4 Bft) O-SO45 115 5 min 43,1 klux 295 W/m
13.08.2015 18:05 31,2 C 40,2 C 26,6 C 53 % 1009,6 hPa 0,0 l/m 22,1 km/h (4 Bft) O45 95 5 min 41,7 klux 285 W/m
13.08.2015 18:10 31,2 C 39,5 C 26,6 C 53 % 1009,6 hPa 0,0 l/m 20,7 km/h (4 Bft) O67.5 95 5 min 36,6 klux 250 W/m
13.08.2015 18:15 31,2 C 39,2 C 26,5 C 53 % 1008,6 hPa 0,0 l/m 13,7 km/h (3 Bft) O67.5 100 0 min 30,8 klux 211 W/m
13.08.2015 18:20 31,2 C 38,1 C 26,5 C 53 % 1008,6 hPa 0,0 l/m 22,4 km/h (4 Bft) SO45 125 0 min 27,2 klux 186 W/m
13.08.2015 18:25 30,7 C 36,9 C 26,5 C 55 % 1008,6 hPa 0,0 l/m 22,4 km/h (4 Bft) SO45 125 0 min 26,4 klux 181 W/m
13.08.2015 18:30 30,7 C 36,3 C 26,5 C 55 % 1008,6 hPa 0,0 l/m 30,2 km/h (5 Bft) O-NO67.5 65 0 min 26,1 klux 179 W/m
13.08.2015 18:35 30,6 C 36,3 C 26,5 C 55 % 1008,6 hPa 0,0 l/m 13,3 km/h (3 Bft) O-NO45 70 0 min 27,7 klux 189 W/m
13.08.2015 18:40 30,7 C 36,1 C 26,4 C 55 % 1008,6 hPa 0,0 l/m 21,5 km/h (4 Bft) O45 95 0 min 26,0 klux 178 W/m
13.08.2015 18:45 30,7 C 36,1 C 26,4 C 55 % 1008,6 hPa 0,0 l/m 19,1 km/h (3 Bft) O45 80 5 min 26,8 klux 183 W/m
13.08.2015 18:50 30,8 C 35,8 C 26,3 C 54 % 1008,6 hPa 0,0 l/m 24,8 km/h (4 Bft) O-SO67.5 105 5 min 28,3 klux 194 W/m
13.08.2015 18:55 30,8 C 35,6 C 26,4 C 54 % 1008,6 hPa 0,0 l/m 20,7 km/h (4 Bft) O45 95 5 min 28,0 klux 192 W/m
13.08.2015 19:00 30,6 C 35,5 C 26,3 C 55 % 1008,6 hPa 0,0 l/m 27,0 km/h (5 Bft) O-SO45 105 5 min 27,5 klux 188 W/m
13.08.2015 19:05 30,6 C 35,6 C 26,3 C 55 % 1008,6 hPa 0,0 l/m 21,1 km/h (4 Bft) O45 85 5 min 27,0 klux 185 W/m
13.08.2015 19:10 30,6 C 35,5 C 26,3 C 56 % 1008,6 hPa 0,0 l/m 18,4 km/h (3 Bft) O67.5 85 5 min 24,7 klux 169 W/m
13.08.2015 19:15 30,6 C 35,0 C 26,3 C 56 % 1008,6 hPa 0,0 l/m 23,1 km/h (4 Bft) O45 90 5 min 23,9 klux 163 W/m
13.08.2015 19:20 30,4 C 34,3 C 26,3 C 56 % 1008,6 hPa 0,0 l/m 26,0 km/h (4 Bft) O-SO67.5 105 5 min 19,7 klux 135 W/m
13.08.2015 19:25 30,4 C 33,7 C 26,3 C 55 % 1008,6 hPa 0,0 l/m 28,1 km/h (5 Bft) O45 85 5 min 18,6 klux 127 W/m
13.08.2015 19:30 30,2 C 32,4 C 26,2 C 56 % 1008,6 hPa 0,0 l/m 13,6 km/h (3 Bft) O67.5 90 0 min 9,4 klux 64 W/m
13.08.2015 19:35 30,1 C 31,8 C 26,2 C 56 % 1008,6 hPa 0,0 l/m 20,1 km/h (4 Bft) O22.5 80 0 min 7,35 klux 50 W/m
13.08.2015 19:40 30,0 C 30,7 C 26,2 C 57 % 1008,6 hPa 0,0 l/m 17,0 km/h (3 Bft) O-NO67.5 70 0 min 6,87 klux 47 W/m
13.08.2015 19:45 29,8 C 29,9 C 26,2 C 57 % 1008,7 hPa 0,0 l/m 20,0 km/h (4 Bft) O-NO67.5 70 0 min 5,94 klux 41 W/m
13.08.2015 19:50 29,8 C 29,4 C 26,2 C 57 % 1008,7 hPa 0,0 l/m 23,9 km/h (4 Bft) O67.5 95 0 min 5,44 klux 37 W/m
13.08.2015 19:55 29,7 C 29,2 C 26,2 C 57 % 1008,7 hPa 0,0 l/m 18,6 km/h (3 Bft) O45 80 0 min 4,58 klux 31 W/m
13.08.2015 20:00 29,6 C 28,8 C 26,2 C 58 % 1008,7 hPa 0,0 l/m 24,8 km/h (4 Bft) O-NO45 70 0 min 3,90 klux 27 W/m
13.08.2015 20:05 29,5 C 28,7 C 26,2 C 58 % 1008,7 hPa 0,0 l/m 14,8 km/h (3 Bft) O67.5 80 0 min 3,68 klux 25 W/m
13.08.2015 20:10 29,4 C 28,6 C 26,2 C 58 % 1007,7 hPa 0,0 l/m 17,6 km/h (3 Bft) O67.5 80 0 min 3,43 klux 23 W/m
13.08.2015 20:15 29,5 C 28,5 C 26,2 C 58 % 1008,7 hPa 0,0 l/m 25,8 km/h (4 Bft) O67.5 80 0 min 2,62 klux 18 W/m
13.08.2015 20:20 29,3 C 28,4 C 26,2 C 58 % 1008,7 hPa 0,0 l/m 17,8 km/h (3 Bft) O-SO67.5 105 0 min 1,79 klux 12 W/m
13.08.2015 20:25 29,3 C 28,4 C 26,2 C 58 % 1008,7 hPa 0,0 l/m 17,9 km/h (3 Bft) O67.5 85 0 min 1,47 klux 10 W/m
13.08.2015 20:30 29,2 C 28,2 C 26,2 C 58 % 1008,7 hPa 0,0 l/m 19,5 km/h (3 Bft) O45 80 0 min 1,16 klux 8 W/m
13.08.2015 20:35 29,1 C 28,0 C 26,1 C 59 % 1008,7 hPa 0,0 l/m 16,7 km/h (3 Bft) O22.5 80 0 min 1,05 klux 7 W/m
13.08.2015 20:40 29,0 C 27,8 C 26,1 C 59 % 1008,7 hPa 0,0 l/m 15,7 km/h (3 Bft) O22.5 85 0 min 899 lux 6 W/m
13.08.2015 20:45 29,0 C 27,8 C 26,1 C 59 % 1008,7 hPa 0,0 l/m 15,7 km/h (3 Bft) O22.5 85 0 min 731 lux 5 W/m
13.08.2015 20:50 29,0 C 27,7 C 26,0 C 59 % 1008,7 hPa 0,0 l/m 25,0 km/h (4 Bft) O67.5 85 0 min 537 lux 4 W/m
13.08.2015 20:55 29,0 C 27,5 C 26,0 C 59 % 1008,7 hPa 0,0 l/m 12,0 km/h (2 Bft) O45 80 0 min 335 lux 0 W/m
13.08.2015 21:00 28,9 C 27,5 C 26,0 C 59 % 1008,7 hPa 0,0 l/m 21,6 km/h (4 Bft) O-NO45 75 0 min 210 lux 0 W/m
13.08.2015 21:05 28,8 C 27,5 C 26,1 C 59 % 1008,7 hPa 0,0 l/m 22,1 km/h (4 Bft) O45 85 0 min 148 lux 0 W/m
13.08.2015 21:10 28,8 C 27,5 C 26,0 C 59 % 1008,7 hPa 0,0 l/m 19,3 km/h (3 Bft) O45 85 0 min 90 lux 0 W/m
13.08.2015 21:15 28,8 C 27,5 C 26,0 C 59 % 1008,7 hPa 0,0 l/m 24,4 km/h (4 Bft) O45 90 0 min 56 lux 0 W/m
13.08.2015 21:20 28,8 C 27,3 C 26,0 C 59 % 1008,7 hPa 0,0 l/m 26,8 km/h (4 Bft) O67.5 85 0 min 28 lux 0 W/m
13.08.2015 21:25 28,7 C 27,3 C 26,0 C 59 % 1008,7 hPa 0,0 l/m 13,8 km/h (3 Bft) O67.5 80 0 min 20 lux 0 W/m
13.08.2015 21:30 28,6 C 27,1 C 26,0 C 59 % 1008,7 hPa 0,0 l/m 20,0 km/h (4 Bft) O-NO67.5 75 0 min 11 lux 0 W/m
13.08.2015 21:35 28,6 C 27,1 C 26,0 C 59 % 1008,7 hPa 0,0 l/m 28,1 km/h (5 Bft) O-SO67.5 105 0 min 6 lux 0 W/m
13.08.2015 21:40 28,5 C 27,0 C 26,0 C 59 % 1008,7 hPa 0,0 l/m 27,5 km/h (5 Bft) O67.5 90 0 min 4 lux 0 W/m
13.08.2015 21:45 28,4 C 26,9 C 26,0 C 59 % 1008,7 hPa 0,0 l/m 29,5 km/h (5 Bft) O67.5 90 0 min 1 lux 0 W/m
13.08.2015 21:50 28,4 C 26,8 C 25,9 C 59 % 1008,7 hPa 0,0 l/m 22,8 km/h (4 Bft) O45 80 0 min 1 lux 0 W/m
13.08.2015 21:55 28,1 C 26,6 C 25,9 C 60 % 1008,7 hPa 0,0 l/m 16,0 km/h (3 Bft) O45 90 0 min 0 lux 0 W/m
13.08.2015 22:00 28,1 C 26,6 C 25,9 C 60 % 1008,7 hPa 0,0 l/m 21,7 km/h (4 Bft) O45 90 0 min 0 lux 0 W/m
13.08.2015 22:05 28,1 C 26,6 C 25,9 C 60 % 1008,7 hPa 0,0 l/m 26,9 km/h (4 Bft) O45 90 0 min 0 lux 0 W/m
13.08.2015 22:10 28,0 C 26,5 C 25,9 C 60 % 1008,7 hPa 0,0 l/m 24,0 km/h (4 Bft) O45 80 0 min 0 lux 0 W/m
13.08.2015 22:15 27,9 C 26,4 C 25,9 C 60 % 1008,7 hPa 0,0 l/m 30,1 km/h (5 Bft) O22.5 80 0 min 0 lux 0 W/m
13.08.2015 22:20 27,9 C 26,3 C 25,9 C 60 % 1008,7 hPa 0,0 l/m 18,3 km/h (3 Bft) O22.5 90 0 min 0 lux 0 W/m
13.08.2015 22:25 27,8 C 26,3 C 25,9 C 61 % 1007,7 hPa 0,0 l/m 20,8 km/h (4 Bft) O45 95 0 min 0 lux 0 W/m
13.08.2015 22:30 27,7 C 26,3 C 25,9 C 61 % 1007,7 hPa 0,0 l/m 22,8 km/h (4 Bft) O-NO45 75 0 min 0 lux 0 W/m
13.08.2015 22:35 27,6 C 26,1 C 25,9 C 61 % 1007,7 hPa 0,0 l/m 24,7 km/h (4 Bft) O67.5 85 0 min 0 lux 0 W/m
13.08.2015 22:40 27,5 C 26,0 C 25,9 C 61 % 1007,7 hPa 0,0 l/m 24,4 km/h (4 Bft) O45 90 0 min 0 lux 0 W/m
13.08.2015 22:45 27,4 C 25,9 C 25,9 C 61 % 1007,7 hPa 0,0 l/m 19,8 km/h (3 Bft) O45 95 0 min 0 lux 0 W/m
13.08.2015 22:50 27,3 C 25,7 C 25,8 C 61 % 1007,7 hPa 0,0 l/m 17,4 km/h (3 Bft) O45 90 0 min 0 lux 0 W/m
13.08.2015 22:55 27,2 C 25,7 C 25,8 C 62 % 1007,7 hPa 0,0 l/m 16,3 km/h (3 Bft) O22.5 100 0 min 0 lux 0 W/m
13.08.2015 23:00 27,2 C 25,7 C 25,8 C 62 % 1007,7 hPa 0,0 l/m 18,0 km/h (3 Bft) O-NO45 65 0 min 0 lux 0 W/m
13.08.2015 23:05 27,2 C 25,7 C 25,8 C 62 % 1007,7 hPa 0,0 l/m 21,1 km/h (4 Bft) O22.5 90 0 min 0 lux 0 W/m
13.08.2015 23:10 27,3 C 25,8 C 25,8 C 61 % 1007,7 hPa 0,0 l/m 24,0 km/h (4 Bft) O45 85 0 min 0 lux 0 W/m
13.08.2015 23:15 27,4 C 25,8 C 25,8 C 61 % 1006,7 hPa 0,0 l/m 18,2 km/h (3 Bft) O-NO45 65 0 min 0 lux 0 W/m
13.08.2015 23:20 27,4 C 25,8 C 25,8 C 61 % 1006,7 hPa 0,0 l/m 15,2 km/h (3 Bft) O-NO67.5 70 0 min 0 lux 0 W/m
13.08.2015 23:25 27,4 C 25,7 C 25,8 C 61 % 1006,7 hPa 0,0 l/m 12,3 km/h (2 Bft) O45 95 0 min 0 lux 0 W/m
13.08.2015 23:30 27,3 C 25,6 C 25,8 C 61 % 1006,7 hPa 0,0 l/m 22,5 km/h (4 Bft) O22.5 80 0 min 0 lux 0 W/m
13.08.2015 23:35 27,2 C 25,4 C 25,8 C 61 % 1006,7 hPa 0,0 l/m 8,6 km/h (2 Bft) O-NO45 60 0 min 0 lux 0 W/m
13.08.2015 23:39 27,2 C 25,2 C 25,8 C 61 % 1006,7 hPa 0,0 l/m 15,5 km/h (3 Bft) O67.5 90 0 min 0 lux 0 W/m
13.08.2015 23:45 27,0 C 25,1 C 25,8 C 62 % 1006,7 hPa 0,0 l/m 12,3 km/h (2 Bft) O45 90 0 min 0 lux 0 W/m
13.08.2015 23:50 26,8 C 24,8 C 25,8 C 63 % 1006,7 hPa 0,0 l/m 14,2 km/h (3 Bft) O67.5 85 0 min 0 lux 0 W/m
13.08.2015 23:55 26,8 C 24,4 C 25,8 C 63 % 1006,7 hPa 0,0 l/m 14,5 km/h (3 Bft) O45 95 0 min 0 lux 0 W/m
_ Min-Zeit 06:05 05:15 07:40 15:35 23:15 - 08:00 - - - - -
Minimum _ 18,3 C 16,6 C 22,3 C 51 % 1006,7 hPa - 0,3 km/h (0 Bft) - - - - -
_ Max-Zeit 16:10 14:30 17:55 06:25 00:20 00:00 17:15 - - 11:50 13:00 13:00
Maximum _ 32,1 C 55,2 C 26,6 C 85 % 1019,8 hPa 0,0 l/m 31,9 km/h
O (5 Bft)
- - 6 min 89,0 klux 609 W/m
Durchschnitt _ 24,5 C 31,8 C 24,2 C 69 % 1013,8 hPa #0,0 l/m 16,3 km/h (3 Bft) O - #11:00 h 30,5 klux 346 W/m